Dauntless Aviation
Greetings, Guest! To participate, [sign up for a free account] or [log in]
Airports Europe Czech Republic
LKPO
PRV

Prerov

Prerov, CZECH REPUBLIC

Airport Info
Edit

Location

Latitude / Longitude: 49°25'32"N / 17°24'16"E
  49°25.548'N / 17°24.282'E
  49.4258 / 17.4047

Nearby radio navigation aids

CK PREROV NDB. 63.6° 2.8nm from CK to field.

Runway Information

Runway 06 /24

Dimensions: 8202 x 196 ft.
Surface: ASP
 
Runway 06
Runway 24
Latitude: 49.421419 49.430439
Longitude: 17.389275 17.420478
Elevation: 663 ft. 663 ft.
Runway true heading: 64.6 244.6
 

Instrument Procedures

  Aerodrome Chart

IAPs (Instrument Approach Procedures)

  ILS/DME Rwy 06
  NDB/DME (GPS) or PAR Rwy 06
  NDB (GPS) or PAR Rwy 06
  POLOM 3A

Departure Procedures

  Instrument Departure Chart HLV 1A - 2Z
  Instrument Departure Chart LUTIM 2A - 2Z
  Instrument Departure Chart MORKO 2Z
  Instrument Departure Chart POLOM 3A
Satellite photo at:
Airport distance calculator
From:
Weather Reports

METAR

LKKU
23.6nm SE
LKKU 241000Z 36019KT 9999 FEW014 07/04 Q1020 RMK REG QNH 1018
LKMT
31.3nm NE
LKMT 241000Z 03012KT 6000 OVC012 03/02 Q1024 NOSIG
LKTB
33.3nm SW
LKTB 241000Z 02017KT 9999 FEW026 11/04 Q1022 NOSIG

TAF

LKMT
31.3nm NE
TAF LKMT 240500Z 2406/2512 02011KT 5000 BR OVC007 TEMPO 2406/2412 03012G22KT 2500 -RADZ BR BKN002 BECMG 2418/2421 VRB02KT 1200 BR BKN002 TEMPO 2422/2509 0500 FG VV001
LKTB
33.3nm SW
TAF LKTB 240500Z 2406/2512 02012KT 9999 BKN023 TEMPO 2406/2414 02013G23KT BECMG 2418/2420 VRB02KT 3000 BR BKN010 PROB30 TEMPO 2500/2508 1000 BCFG BKN003
Safelog

 

Dauntless Aviation

© 2007-2014 Dauntless Aviation, all rights reserved
Information provided via PilotNav comes from a variety of official and unofficial data sources. As errors are possible, do not use PilotNav for primary flight planning purposes. Verify any information that you receive via PilotNav with current and canonical charts and other official documents. The material in this database is subject to database copyrights held by Dauntless Aviation and may not be copied without the express permission of Dauntless Aviation - licenses for use of part of all of this data are available for purchase; enquire via the Dauntless Aviation helpdesk. A number of mechanisms and markers exist in the database to protect against and identify infringement / copyright. Automated queries against this website are stictly prohibited, and all activity is logged and analyzed.